Location: Saint-Restitut
(44.3351°N, 4.7915°E)
Time: 02:34:49
(UTC+00:00)

Cosmos 2322 - Pass Details

Date: 03 February 2023
Orbit: 841 x 853 km, 71.0° (Epoch: 27 March)

Event Time Altitude Azimuth Distance (km) Brightness Sun altitude
Rises 18:51:43 0° 190° (S) 3,405 7.0 -21.5°
Reaches altitude 10° 18:54:12 10° 186° (S) 2,474 6.2 -22.0°
Maximum altitude 18:59:44 56° 110° (ESE) 1,013 3.7 -22.9°
Enters shadow 19:00:21 53° 84° (E) 1,045 3.7 -23.1°
